Regional Weather Roundup
Issued by NWS

Home | Current Version | Previous Version | Graphics & Text | Print | Product List | Glossary On
Versions: 1 2 3 4 5 6 7 8 9 10 11 12 13 14 15 16 17 18 19 20 21 22 23 24 25 26 27 28 29 30 31 32 33 34 35 36 37 38 39 40 41 42 43 44 45 46 47 48 49 50
000
ASUS45 KABQ 191201
RWRNM
NEW MEXICO REGIONAL WEATHER ROUNDUP
NATIONAL WEATHER SERVICE ALBUQUERQUE NM
500 AM MST MON FEB 19 2018

NOTE: "FAIR" MEANS FEW OR NO CLOUDS BELOW 12,000 FEET AGL WITH NO
       SIGNIFICANT WEATHER OR OBSTRUCTIONS TO VISION.

      THIS PRODUCT IS RELEASED AS TWO VERSIONS.  ONE VERSION NEAR
      THE TOP OF THE HOUR CONTAINING PRELIMINARY DATA FROM ALBUQUERQUE
      AND OTHER STATIONS.  A FINAL VERSION WITH ADDITIONAL DATA IS
      ISSUED ABOUT 10 MINUTES AFTER THE HOUR.

NMZ501-503-504-510>518-191300-
NORTHWEST PLATEAU/NORTHCENTRAL MOUNTAINS

CITY           SKY/WX    TMP DP  RH WIND       PRES   REMARKS
FARMINGTON     FAIR      46  27  47 SW12      29.60F
6HR MIN TEMP:  43; 6HR MAX TEMP:  47; 6HR PCP: TRACE;

LOS ALAMOS     FAIR      38  28  69 CALM      29.74R
SANTA FE       FAIR      40  34  79 SW8       29.71F WCI  34
6HR MIN TEMP:  40; 6HR MAX TEMP:  47;

TAOS           CLOUDY    37  25  61 W10G16    29.74F WCI  30
ANGEL FIRE     CLOUDY    33  23  66 S7        29.73S WCI  27

$$
NMZ402-403-502-505>509-191300-
WESTCENTRAL MOUNTAINS/SOUTHWEST MOUNTAINS

CITY           SKY/WX    TMP DP  RH WIND       PRES   REMARKS
GALLUP         FAIR      39  34  82 SW22G31   29.68F WCI  29
6HR MIN TEMP:  39; 6HR MAX TEMP:  42; 6HR PCP:  0.01;

GRANTS         CLOUDY    39  28  64 S9        29.72R WCI  33
SILVER CITY    DRIZZLE   44  41  89 W14       29.83F

$$
NMZ407-409-411-412-191300-
SOUTHERN DESERTS

CITY           SKY/WX    TMP DP  RH WIND       PRES   REMARKS
DEMING         CLOUDY    50  43  77 SW13G20   29.81F
6HR MIN TEMP:  49; 6HR MAX TEMP:  52; 6HR PCP:  0.01;

LAS CRUCES     FAIR      45  45 100 CALM      29.83S
ALAMOGORDO     CLOUDY    52  45  76 S6        29.82F
T OR C         MOCLDY    50  43  77 S17       29.75F
6HR MIN TEMP:  50; 6HR MAX TEMP:  54; 6HR PCP: TRACE;


$$
NMZ519>523-191300-
CENTRAL VALLEYS/CENTRAL HIGHLANDS

CITY           SKY/WX    TMP DP  RH WIND       PRES   REMARKS
ALBUQUERQUE    FAIR      47  32  56 SW13G23   29.73R
6HR MIN TEMP:  44; 6HR MAX TEMP:  51;

MORIARTY ARPT  FAIR      38  35  89 S8        29.74R WCI  32
6HR MIN TEMP:  38; 6HR MAX TEMP:  49;

CLINES CORNERS FAIR      37  33  85 SW15      29.75S WCI  28
6HR MIN TEMP:  36; 6HR MAX TEMP:  43; 6HR PCP: TRACE;

BELEN          FAIR      46  37  71 S12       29.74S
6HR MIN TEMP:  46; 6HR MAX TEMP:  51;

SOCORRO        MOCLDY    46  42  84 SE10      29.75S
6HR MIN TEMP:  45; 6HR MAX TEMP:  55;


$$
NMZ524>526-539-540-191300-
SOUTHCENTRAL MOUNTAINS

CITY           SKY/WX    TMP DP  RH WIND       PRES   REMARKS
RUIDOSO        FAIR      43  34  70 SW33G48   29.77F

$$
NMZ527>531-191300-
NORTHEAST HIGHLANDS/NORTHEAST PLAINS

CITY           SKY/WX    TMP DP  RH WIND       PRES   REMARKS
LAS VEGAS      FAIR      39  30  70 SW17G26   29.70S WCI  30
6HR MIN TEMP:  39; 6HR MAX TEMP:  45;

RATON          FAIR      38  19  46 SW12      29.61S WCI  30
6HR MIN TEMP:  32; 6HR MAX TEMP:  47;

CLAYTON        FAIR      48  31  51 SW20G29   29.56S
6HR MIN TEMP:  48; 6HR MAX TEMP:  51;


$$
NMZ532>537-191300-
EASTCENTRAL PLAINS

CITY           SKY/WX    TMP DP  RH WIND       PRES   REMARKS
SANTA ROSA     FAIR      46  38  74 SW10      29.71R
TUCUMCARI      FAIR      47  38  71 SW9       29.66R
6HR MIN TEMP:  47; 6HR MAX TEMP:  59;

CANNON AFB     NOT AVBL
CLOVIS AIRPORT NOT AVBL

$$
NMZ028-029-538-191300-
SOUTHEAST PLAINS

CITY           SKY/WX    TMP DP  RH WIND       PRES   REMARKS
ROSWELL        FAIR      49  41  74 S6        29.72F
6HR MIN TEMP:  47; 6HR MAX TEMP:  59;

ARTESIA        FAIR      57  41  54 SW14      29.78R
CARLSBAD       FAIR      53  43  68 VRB6      29.77R
6HR MIN TEMP:  50; 6HR MAX TEMP:  65;

HOBBS          FAIR      45  45 100 SW7       29.79R


$$




USA.gov is the U.S. government's official web portal to all federal, state and local government web resources and services.